When you browse on this site, cookies collect data to enhance your experience and personalize the content and advertising you see.
Visit our Privacy Policy to learn more. By continuing to use the site, you agree to this use of cookies and data.
  • In Hungary
  • List of Countries
  • For 7 days
  • Water Temperature
  • Satellite Maps
  • Weather Map
  • News
  • Weather Widgets
  • user-avatar
    Login

    Hourly Weather Saint Helens

    Today, 15 December, Saturday

    Time Temperature Precipitation Wind Pressure Humidity
    00:00 -1°C° 0 mm 8 mps 759 mmHg 75%
    01:00 -1°C° 0 mm 8 mps 759 mmHg 73%
    02:00 -1°C° 0 mm 9 mps 758 mmHg 71%
    03:00 -1°C° 0 mm 9 mps 758 mmHg 69%
    04:00 -1°C° 0.1 mm 9 mps 757 mmHg 71%
    05:00 -3°C° 0.1 mm 9 mps 756 mmHg 74%
    06:00 -3°C° 0.1 mm 9 mps 755 mmHg 76%
    07:00 -3°C° 0.2 mm 10 mps 754 mmHg 77%
    08:00 -3°C° 0.2 mm 10 mps 753 mmHg 78%
    09:00 -2°C° 0.2 mm 11 mps 752 mmHg 80%
    10:00 -2°C° 0.2 mm 11 mps 751 mmHg 80%
    11:00 -2°C° 0.2 mm 12 mps 750 mmHg 80%
    12:00 -2°C° 0.2 mm 12 mps 749 mmHg 80%
    13:00 -1°C° 1.9 mm 12 mps 747 mmHg 82%
    14:00 -1°C° 1.9 mm 12 mps 746 mmHg 84%
    15:00 -1°C° 1.9 mm 12 mps 744 mmHg 85%
    16:00 0°C° 1.8 mm 12 mps 743 mmHg 86%
    17:00 +1°C° 1.8 mm 11 mps 741 mmHg 87%
    18:00 +1°C° 1.8 mm 11 mps 739 mmHg 88%
    19:00 +2°C° 0.6 mm 10 mps 738 mmHg 89%
    20:00 +3°C° 0.6 mm 9 mps 738 mmHg 90%
    21:00 +6°C° 0.6 mm 8 mps 737 mmHg 90%
    22:00 +5°C° 0.8 mm 9 mps 737 mmHg 88%
    23:00 +5°C° 0.8 mm 10 mps 738 mmHg 86%

    Tomorrow, 16 December, Sunday

    Time Temperature Precipitation Wind Pressure Humidity
    00:00 +4°C° 0.8 mm 12 mps 739 mmHg 83%
    01:00 +4°C° 0.5 mm 11 mps 740 mmHg 80%
    02:00 +5°C° 0.5 mm 10 mps 741 mmHg 77%
    03:00 +5°C° 0.5 mm 10 mps 742 mmHg 74%
    04:00 +3°C° 0.1 mm 9 mps 743 mmHg 76%
    05:00 +4°C° 0.1 mm 8 mps 744 mmHg 77%
    06:00 +4°C° 0.1 mm 7 mps 745 mmHg 79%
    07:00 +4°C° 0 mm 6 mps 746 mmHg 81%
    08:00 +3°C° 0 mm 6 mps 746 mmHg 83%
    09:00 +3°C° 0 mm 5 mps 747 mmHg 85%
    10:00 +3°C° 0 mm 5 mps 747 mmHg 83%
    11:00 +5°C° 0 mm 5 mps 747 mmHg 81%
    12:00 +6°C° 0 mm 5 mps 747 mmHg 80%
    13:00 +6°C° 0.2 mm 4 mps 747 mmHg 82%
    14:00 +5°C° 0.2 mm 4 mps 747 mmHg 84%
    15:00 +5°C° 0.2 mm 4 mps 747 mmHg 86%
    16:00 +5°C° 0.4 mm 4 mps 748 mmHg 87%
    17:00 +5°C° 0.4 mm 3 mps 748 mmHg 88%
    18:00 +4°C° 0.4 mm 3 mps 748 mmHg 90%
    19:00 +4°C° 0.1 mm 3 mps 749 mmHg 90%
    20:00 +4°C° 0.1 mm 3 mps 749 mmHg 89%
    21:00 +3°C° 0.1 mm 3 mps 749 mmHg 89%
    22:00 +3°C° 0 mm 3 mps 750 mmHg 89%
    23:00 +3°C° 0 mm 4 mps 750 mmHg 89%

    Day after tomorrow, 17 December, Monday

    Time Temperature Precipitation Wind Pressure Humidity
    00:00 +3°C° 0 mm 4 mps 751 mmHg 88%
    01:00 +3°C° 0.1 mm 4 mps 751 mmHg 88%
    02:00 +3°C° 0.1 mm 4 mps 752 mmHg 89%
    03:00 +3°C° 0.1 mm 4 mps 752 mmHg 89%
    04:00 +3°C° 0 mm 4 mps 753 mmHg 89%
    05:00 +3°C° 0 mm 4 mps 753 mmHg 89%
    06:00 +3°C° 0 mm 3 mps 754 mmHg 88%
    07:00 +3°C° 0 mm 3 mps 754 mmHg 88%
    08:00 +3°C° 0 mm 3 mps 755 mmHg 88%
    09:00 +2°C° 0 mm 3 mps 755 mmHg 88%
    10:00 +3°C° 0 mm 4 mps 755 mmHg 86%
    11:00 +4°C° 0 mm 4 mps 755 mmHg 84%
    12:00 +5°C° 0 mm 4 mps 755 mmHg 82%
    13:00 +5°C° 0 mm 5 mps 755 mmHg 84%
    14:00 +6°C° 0 mm 5 mps 755 mmHg 85%
    15:00 +6°C° 0 mm 5 mps 754 mmHg 87%
    16:00 +5°C° 0 mm 6 mps 754 mmHg 87%
    17:00 +5°C° 0 mm 6 mps 754 mmHg 88%
    18:00 +6°C° 0 mm 7 mps 754 mmHg 89%
    19:00 +6°C° 0.1 mm 7 mps 754 mmHg 89%
    20:00 +6°C° 0.1 mm 7 mps 753 mmHg 88%
    21:00 +7°C° 0.1 mm 8 mps 753 mmHg 88%
    22:00 +7°C° 0 mm 8 mps 753 mmHg 88%
    23:00 +9°C° 0 mm 8 mps 752 mmHg 88%

    18 December, Tuesday

    Time Temperature Precipitation Wind Pressure Humidity
    00:00 +9°C° 0 mm 8 mps 752 mmHg 87%
    01:00 +9°C° 0.1 mm 8 mps 751 mmHg 87%
    02:00 +9°C° 0.1 mm 8 mps 751 mmHg 86%
    03:00 +9°C° 0.1 mm 8 mps 751 mmHg 85%
    04:00 +9°C° 0.1 mm 8 mps 750 mmHg 85%
    05:00 +8°C° 0.1 mm 9 mps 749 mmHg 84%
    06:00 +8°C° 0.1 mm 9 mps 749 mmHg 83%
    07:00 +8°C° 0.1 mm 10 mps 748 mmHg 82%
    08:00 +8°C° 0.1 mm 11 mps 747 mmHg 80%
    09:00 +7°C° 0.1 mm 12 mps 746 mmHg 79%
    10:00 +7°C° 0.8 mm 12 mps 745 mmHg 78%
    11:00 +7°C° 0.8 mm 13 mps 744 mmHg 78%
    12:00 +7°C° 0.8 mm 13 mps 743 mmHg 77%
    13:00 +7°C° 0.8 mm 12 mps 743 mmHg 79%
    14:00 +7°C° 0.8 mm 12 mps 743 mmHg 80%
    15:00 +7°C° 0.8 mm 11 mps 742 mmHg 82%
    16:00 +7°C° 1.2 mm 10 mps 742 mmHg 83%
    17:00 +7°C° 1.2 mm 8 mps 742 mmHg 85%
    18:00 +6°C° 1.2 mm 7 mps 742 mmHg 87%
    19:00 +7°C° 1.5 mm 6 mps 742 mmHg 87%
    20:00 +7°C° 1.5 mm 5 mps 742 mmHg 88%
    21:00 +7°C° 1.5 mm 4 mps 742 mmHg 88%
    22:00 +6°C° 0.2 mm 4 mps 743 mmHg 88%
    23:00 +6°C° 0.2 mm 4 mps 743 mmHg 87%

    19 December, Wednesday

    Time Temperature Precipitation Wind Pressure Humidity
    00:00 +6°C° 0.2 mm 4 mps 744 mmHg 86%
    01:00 +6°C° 0.3 mm 5 mps 744 mmHg 86%
    02:00 +6°C° 0.3 mm 5 mps 745 mmHg 86%
    03:00 +5°C° 0.3 mm 5 mps 745 mmHg 86%
    04:00 +5°C° 0 mm 5 mps 745 mmHg 86%
    05:00 +5°C° 0 mm 5 mps 746 mmHg 86%
    06:00 +5°C° 0 mm 5 mps 746 mmHg 86%
    07:00 +3°C° 0 mm 5 mps 747 mmHg 86%
    08:00 +3°C° 0 mm 5 mps 747 mmHg 86%
    09:00 +3°C° 0 mm 5 mps 748 mmHg 86%
    10:00 +5°C° 0 mm 5 mps 748 mmHg 82%
    11:00 +4°C° 0 mm 6 mps 748 mmHg 79%
    12:00 +5°C° 0 mm 6 mps 748 mmHg 76%
    13:00 +5°C° 0 mm 6 mps 748 mmHg 77%
    14:00 +5°C° 0 mm 6 mps 748 mmHg 77%
    15:00 +5°C° 0 mm 6 mps 748 mmHg 77%
    16:00 +5°C° 0.1 mm 6 mps 749 mmHg 78%
    17:00 +4°C° 0.1 mm 6 mps 749 mmHg 79%
    18:00 +4°C° 0.1 mm 7 mps 749 mmHg 80%
    19:00 +4°C° 0.2 mm 7 mps 749 mmHg 81%
    20:00 +4°C° 0.2 mm 7 mps 749 mmHg 81%
    21:00 +4°C° 0.2 mm 7 mps 750 mmHg 81%
    22:00 +4°C° 0.1 mm 7 mps 750 mmHg 82%
    23:00 +4°C° 0.1 mm 7 mps 750 mmHg 83%

    20 December, Thursday

    Time Temperature Precipitation Wind Pressure Humidity
    00:00 +4°C° 0.1 mm 7 mps 750 mmHg 84%
    01:00 +4°C° 0.1 mm 6 mps 750 mmHg 85%
    02:00 +4°C° 0.1 mm 6 mps 751 mmHg 85%
    03:00 +4°C° 0.1 mm 6 mps 751 mmHg 85%
    04:00 +4°C° 0.1 mm 6 mps 751 mmHg 86%
    05:00 +4°C° 0.1 mm 6 mps 751 mmHg 86%
    06:00 +4°C° 0.1 mm 6 mps 751 mmHg 87%
    07:00 +4°C° 0.3 mm 6 mps 752 mmHg 86%
    08:00 +4°C° 0.3 mm 6 mps 752 mmHg 86%
    09:00 +4°C° 0.3 mm 6 mps 753 mmHg 85%
    10:00 +5°C° 0.2 mm 6 mps 753 mmHg 83%
    11:00 +5°C° 0.2 mm 6 mps 753 mmHg 81%
    12:00 +7°C° 0.2 mm 6 mps 754 mmHg 79%
    13:00 +7°C° 0.1 mm 5 mps 754 mmHg 80%
    14:00 +7°C° 0.1 mm 5 mps 754 mmHg 80%
    15:00 +6°C° 0.1 mm 4 mps 754 mmHg 81%
    16:00 +6°C° 0 mm 4 mps 755 mmHg 83%
    17:00 +5°C° 0 mm 4 mps 755 mmHg 85%
    18:00 +5°C° 0 mm 4 mps 755 mmHg 86%
    19:00 +5°C° 0 mm 4 mps 754 mmHg 86%
    20:00 +5°C° 0 mm 5 mps 754 mmHg 86%
    21:00 +5°C° 0 mm 5 mps 753 mmHg 86%
    22:00 +4°C° 0 mm 6 mps 752 mmHg 87%
    23:00 +5°C° 0 mm 7 mps 751 mmHg 88%
    Show more